N4SRN-13 Weather Reports


Display with metric or nautical units.
time (UTC)temp
F
wind
direction
speed
MPH
gust
MPH
rain 1hr
in
rain 24hr
in
rain mn
in
humidity
%
barometer
mb
20260504194916 72 109 3.0 14.0 0.00 0.01 0.01 31 1004.1
20260504194815 72 279 4.0 14.0 0.00 0.01 0.01 32 1004.2
20260504194715 72 51 4.0 14.0 0.00 0.01 0.01 31 1004.1
20260504194614 72 133 4.0 14.0 0.00 0.01 0.01 31 1004.1
20260504194515 72 288 4.0 14.0 0.00 0.01 0.01 30 1004.2
20260504194407 72 300 4.0 14.0 0.00 0.01 0.01 30 1004.4
20260504194306 72 280 4.0 14.0 0.00 0.01 0.01 31 1004.3
20260504194208 72 42 3.0 14.0 0.00 0.01 0.01 31 1004.1
20260504194107 72 186 3.0 14.0 0.00 0.01 0.01 30 1004.1
20260504194007 72 179 3.0 14.0 0.00 0.01 0.01 31 1004.3
20260504193901 72 98 2.0 10.0 0.00 0.01 0.01 30 1004.0
20260504193801 72 100 2.0 9.0 0.00 0.01 0.01 31 1004.0
20260504193701 72 264 2.0 9.0 0.00 0.01 0.01 31 1004.0
20260504193602 72 132 2.0 9.0 0.00 0.01 0.01 32 1004.0
20260504193501 72 297 2.0 9.0 0.00 0.01 0.01 31 1004.1
20260504193355 72 279 2.0 13.0 0.00 0.01 0.01 31 1004.1
20260504193255 71 162 3.0 13.0 0.00 0.01 0.01 32 1004.0
20260504193155 71 261 3.0 13.0 0.00 0.01 0.01 32 1004.1
20260504193129 71 311 3.0 13.0 0.00 0.01 0.01 31 1004.1
20260504193118 71 282 3.0 13.0 0.00 0.01 0.01 31 1004.1
20260504192958 71 311 3.0 13.0 0.00 0.01 0.01 31 1004.1
20260504192851 71 285 3.0 13.0 0.00 0.01 0.01 30 1004.1
20260504192749 72 300 3.0 13.0 0.00 0.01 0.01 30 1004.2
20260504192650 72 194 3.0 13.0 0.00 0.01 0.01 30 1004.2
20260504192550 72 306 4.0 13.0 0.00 0.01 0.01 31 1004.2
20260504192452 72 280 4.0 12.0 0.00 0.01 0.01 31 1004.2
20260504192344 72 30 4.0 14.0 0.00 0.01 0.01 30 1004.2
20260504192310 72 280 4.0 14.0 0.00 0.01 0.01 33 1004.1
20260504192300 72 142 4.0 14.0 0.00 0.01 0.01 32 1004.3
20260504192043 72 128 5.0 14.0 0.00 0.01 0.01 31 1004.1
20260504191945 71 167 5.0 14.0 0.00 0.01 0.01 32 1004.1
20260504191844 71 162 5.0 14.0 0.00 0.01 0.01 31 1004.2
20260504191741 71 259 5.0 14.0 0.00 0.01 0.01 31 1004.1
20260504191644 71 304 4.0 14.0 0.00 0.01 0.01 30 1004.3
20260504191539 72 287 4.0 14.0 0.00 0.01 0.01 31 1004.3
20260504191505 71 162 4.0 14.0 0.00 0.01 0.01 32 1004.2
20260504191450 72 142 4.0 14.0 0.00 0.01 0.01 30 1004.2
20260504191233 71 187 4.0 14.0 0.00 0.01 0.01 31 1004.1
20260504191134 71 278 4.0 14.0 0.00 0.01 0.01 31 1004.1
20260504191103 71 153 4.0 14.0 0.00 0.01 0.01 30 1004.2
20260504191053 71 288 4.0 14.0 0.00 0.01 0.01 31 1004.2
20260504190931 71 153 4.0 14.0 0.00 0.01 0.01 30 1004.2
20260504190825 71 349 4.0 14.0 0.00 0.01 0.01 30 1004.4
20260504190753 71 260 4.0 14.0 0.00 0.01 0.01 30 1004.3
20260504190743 71 153 4.0 14.0 0.00 0.01 0.01 31 1004.4
20260504190619 71 330 4.0 14.0 0.00 0.01 0.01 31 1004.3
20260504190611 71 156 4.0 13.0 0.00 0.01 0.01 31 1004.2
20260504190600 71 131 4.0 14.0 0.00 0.01 0.01 31 1004.3
20260504190439 71 330 4.0 14.0 0.00 0.01 0.01 31 1004.3
20260504190218 71 33 4.0 11.0 0.00 0.01 0.01 31 1004.3
20260504190119 71 146 4.0 11.0 0.00 0.01 0.01 31 1004.4
20260504190019 71 243 4.0 12.0 0.00 0.01 0.01 31 1004.3
20260504185921 71 302 4.0 12.0 0.00 0.01 0.01 31 1004.2
20260504185813 71 243 4.0 12.0 0.00 0.01 0.01 31 1004.3
20260504185713 71 3 4.0 12.0 0.00 0.01 0.01 31 1004.3
20260504185613 71 248 3.0 12.0 0.00 0.01 0.01 31 1004.3
20260504185513 71 139 3.0 12.0 0.00 0.01 0.01 30 1004.2
20260504185414 71 77 3.0 12.0 0.00 0.01 0.01 30 1004.4
20260504185314 71 248 3.0 12.0 0.00 0.01 0.01 31 1004.3
20260504185212 71 34 3.0 12.0 0.00 0.01 0.01 31 1004.4
20260504185112 71 8 4.0 20.0 0.00 0.01 0.01 31 1004.4
20260504185012 71 333 4.0 20.0 0.00 0.01 0.01 32 1004.4
20260504184914 71 273 4.0 20.0 0.00 0.01 0.01 31 1004.2
20260504184758 70 263 4.0 20.0 0.00 0.01 0.01 31 1004.3
20260504184657 70 257 4.0 20.0 0.00 0.01 0.01 33 1004.3
20260504184558 70 289 4.0 20.0 0.00 0.01 0.01 32 1004.3
20260504184457 70 186 5.0 20.0 0.00 0.01 0.01 31 1004.3
20260504184359 70 264 5.0 20.0 0.00 0.01 0.01 30 1004.5
20260504184320 70 277 5.0 20.0 0.00 0.01 0.01 31 1004.4
20260504184309 70 179 5.0 20.0 0.00 0.01 0.01 32 1004.5
20260504184052 70 160 4.0 13.0 0.00 0.01 0.01 31 1004.6
20260504183956 70 280 4.0 13.0 0.00 0.01 0.01 30 1004.4
20260504183934 70 288 4.0 13.0 0.00 0.01 0.01 30 1004.4
20260504183814 70 129 4.0 13.0 0.00 0.01 0.01 30 1004.4
20260504183810 71 120 3.0 13.0 0.00 0.01 0.01 30 1004.4
20260504183757 70 274 4.0 13.0 0.00 0.01 0.01 32 1004.6
20260504183741 70 257 4.0 13.0 0.00 0.01 0.01 31 1004.5
20260504183348 71 120 3.0 13.0 0.00 0.01 0.01 30 1004.4
20260504183308 71 252 3.0 11.0 0.00 0.01 0.01 30 1004.6
20260504183257 71 129 3.0 11.0 0.00 0.01 0.01 30 1004.6
20260504183042 71 269 3.0 11.0 0.00 0.01 0.01 30 1004.5
20260504183025 71 285 3.0 11.0 0.00 0.01 0.01 30 1004.4
20260504182854 71 313 3.0 11.0 0.00 0.01 0.01 29 1004.5
20260504182637 72 281 4.0 11.0 0.00 0.01 0.01 30 1004.6
20260504182539 72 354 4.0 11.0 0.00 0.01 0.01 29 1004.6
20260504182437 72 328 4.0 11.0 0.00 0.01 0.01 30 1004.6
20260504182335 71 293 4.0 11.0 0.00 0.01 0.01 32 1004.6
20260504182255 71 300 4.0 11.0 0.00 0.01 0.01 29 1004.4
20260504182245 71 215 4.0 11.0 0.00 0.01 0.01 30 1004.7
20260504182027 71 148 4.0 11.0 0.00 0.01 0.01 29 1004.4
20260504181928 71 141 4.0 11.0 0.00 0.01 0.01 30 1004.6
20260504181855 71 123 4.0 12.0 0.00 0.01 0.01 30 1004.4
20260504181846 71 304 4.0 11.0 0.00 0.01 0.01 30 1004.5
20260504181839 71 239 4.0 12.0 0.00 0.01 0.01 30 1004.5
20260504181623 71 148 4.0 12.0 0.00 0.01 0.01 31 1004.5
20260504181521 71 148 4.0 12.0 0.00 0.01 0.01 31 1004.4
20260504181423 71 321 4.0 12.0 0.00 0.01 0.01 30 1004.4
20260504181328 71 355 3.0 12.0 0.00 0.01 0.01 29 1004.5
20260504181323 71 354 3.0 12.0 0.00 0.01 0.01 29 1004.5
20260504181242 71 65 4.0 12.0 0.00 0.01 0.01 31 1004.7
20260504181232 71 296 4.0 12.0 0.00 0.01 0.01 32 1004.7
20260504181015 71 130 3.0 12.0 0.00 0.01 0.01 30 1004.6
20260504180917 71 124 3.0 12.0 0.00 0.01 0.01 30 1004.5
20260504180827 71 101 3.0 12.0 0.00 0.01 0.01 31 1004.6
20260504180818 71 140 3.0 12.0 0.00 0.01 0.01 30 1004.6
20260504180708 71 308 3.0 12.0 0.00 0.01 0.01 31 1004.6
20260504180609 71 297 3.0 12.0 0.00 0.01 0.01 31 1004.5
20260504180509 71 290 3.0 12.0 0.00 0.01 0.01 30 1004.6
20260504180409 71 22 3.0 14.0 0.00 0.01 0.01 31 1004.6
20260504180338 71 127 3.0 14.0 0.00 0.01 0.01 30 1004.5
20260504180329 71 148 4.0 14.0 0.00 0.01 0.01 30 1004.6
20260504180320 71 117 4.0 14.0 0.00 0.01 0.01 30 1004.6
20260504180108 71 259 3.0 14.0 0.00 0.01 0.01 31 1004.5
20260504180051 71 150 3.0 14.0 0.00 0.01 0.01 31 1004.6
20260504175925 71 96 3.0 14.0 0.00 0.01 0.01 30 1004.6
20260504175915 71 243 3.0 14.0 0.00 0.01 0.01 30 1004.6
20260504175657 70 252 4.0 14.0 0.00 0.01 0.01 31 1004.5
20260504175556 70 345 4.0 14.0 0.00 0.01 0.01 30 1004.5
20260504175457 70 269 5.0 14.0 0.00 0.01 0.01 30 1004.7
20260504175357 70 123 5.0 18.0 0.00 0.01 0.01 32 1004.7
20260504175329 70 281 5.0 18.0 0.00 0.01 0.01 31 1004.7
20260504175258 70 280 5.0 18.0 0.00 0.01 0.01 31 1004.7
20260504175151 70 3 5.0 18.0 0.00 0.01 0.01 32 1004.8
20260504175125 70 139 5.0 18.0 0.00 0.01 0.01 29 1004.5
20260504175056 70 130 5.0 18.0 0.00 0.01 0.01 32 1004.7
20260504175046 70 153 5.0 18.0 0.00 0.01 0.01 30 1004.5
20260504175032 70 285 5.0 18.0 0.00 0.01 0.01 31 1004.5
20260504175016 70 146 5.0 18.0 0.00 0.01 0.01 30 1004.5
20260504174855 70 114 5.0 18.0 0.00 0.01 0.01 29 1004.5
20260504174741 70 249 4.0 16.0 0.00 0.01 0.01 32 1004.6
20260504174727 70 151 5.0 18.0 0.00 0.01 0.01 30 1004.6
20260504174557 70 129 4.0 18.0 0.00 0.01 0.01 32 1004.7
20260504174309 70 195 4.0 16.0 0.00 0.01 0.01 31 1004.6
20260504174259 70 283 4.0 16.0 0.00 0.01 0.01 31 1004.6
20260504174122 70 238 5.0 16.0 0.00 0.01 0.01 29 1004.6
20260504173959 70 122 5.0 17.0 0.00 0.01 0.01 30 1004.8
20260504173829 70 85 5.0 17.0 0.00 0.01 0.01 30 1005.0
20260504173741 70 97 5.0 17.0 0.00 0.01 0.01 30 1005.0
20260504173633 70 319 5.0 17.0 0.00 0.01 0.01 31 1004.7
20260504173600 70 65 5.0 17.0 0.00 0.01 0.01 30 1004.8
20260504173550 70 57 5.0 17.0 0.00 0.01 0.01 31 1004.7
20260504173336 70 58 5.0 17.0 0.00 0.01 0.01 30 1004.8
20260504173327 70 345 5.0 17.0 0.00 0.01 0.01 30 1004.7
20260504173234 70 341 5.0 17.0 0.00 0.01 0.01 29 1004.7
20260504173127 70 26 5.0 17.0 0.00 0.01 0.01 30 1004.7
20260504173029 70 288 5.0 17.0 0.00 0.01 0.01 31 1004.7
20260504172928 70 133 4.0 14.0 0.00 0.01 0.01 31 1004.6
20260504172834 70 225 4.0 14.0 0.00 0.01 0.01 31 1004.7
20260504172827 70 245 4.0 14.0 0.00 0.01 0.01 31 1004.7
20260504172728 70 290 4.0 14.0 0.00 0.01 0.01 31 1004.7
20260504172622 70 299 4.0 14.0 0.00 0.01 0.01 32 1004.5
20260504172522 69 145 4.0 14.0 0.00 0.01 0.01 31 1004.6
20260504172421 69 117 4.0 14.0 0.00 0.01 0.01 31 1004.7
20260504172328 69 198 5.0 16.0 0.00 0.01 0.01 31 1004.7
20260504172321 69 159 5.0 16.0 0.00 0.01 0.01 30 1004.7
20260504172221 70 128 4.0 16.0 0.00 0.01 0.01 30 1004.8
20260504172141 69 288 4.0 16.0 0.00 0.01 0.01 32 1004.7
20260504172131 70 122 4.0 16.0 0.00 0.01 0.01 32 1004.9
20260504171916 69 108 4.0 16.0 0.00 0.01 0.01 32 1004.9
20260504171849 69 294 4.0 16.0 0.00 0.01 0.01 30 1004.8
20260504171839 69 259 4.0 16.0 0.00 0.01 0.01 31 1004.8
20260504171833 69 349 4.0 16.0 0.00 0.01 0.01 31 1004.8
20260504171635 69 264 4.0 15.0 0.00 0.01 0.01 32 1005.1
20260504171629 69 298 3.0 13.0 0.00 0.01 0.01 32 1004.8
20260504171623 69 142 4.0 13.0 0.00 0.01 0.01 32 1004.8
20260504171615 69 298 4.0 16.0 0.00 0.01 0.01 33 1004.9
20260504171557 69 285 4.0 16.0 0.00 0.01 0.01 31 1004.7
20260504171430 69 139 3.0 13.0 0.00 0.01 0.01 32 1004.8
20260504171305 69 86 3.0 13.0 0.00 0.01 0.01 34 1004.8
20260504171144 69 123 4.0 13.0 0.00 0.01 0.01 33 1004.8
20260504170828 69 262 4.0 13.0 0.00 0.01 0.01 33 1004.9
20260504170804 69 138 4.0 13.0 0.00 0.01 0.01 32 1004.9
20260504170704 69 187 4.0 13.0 0.00 0.01 0.01 32 1005.1
20260504170558 69 299 4.0 13.0 0.00 0.01 0.01 32 1005.1
20260504170458 69 242 4.0 13.0 0.00 0.01 0.01 32 1005.0
20260504170358 69 262 4.0 13.0 0.00 0.01 0.01 32 1004.9
20260504170327 69 321 4.0 13.0 0.00 0.01 0.01 32 1005.0
20260504170258 69 288 4.0 13.0 0.00 0.01 0.01 32 1005.0
20260504170158 69 70 5.0 15.0 0.00 0.01 0.01 32 1004.9
20260504160440 67 294 6.0 21.0 0.01 0.01 0.01 33 1005.5
20260504160409 67 93 6.0 21.0 0.01 0.01 0.01 34 1005.7
20260504160358 67 277 6.0 21.0 0.01 0.01 0.01 32 1005.6
20260504160224 67 277 6.0 21.0 0.01 0.01 0.01 34 1005.8
20260504160140 67 130 6.0 17.0 0.01 0.01 0.01 35 1005.8
20260504151042 65 170 4.0 11.0 0.00 0.00 0.01 36 1005.9
20260504150942 65 123 4.0 11.0 0.00 0.00 0.00 37 1005.9
20260504150838 65 108 5.0 15.0 0.00 0.00 0.00 37 1005.9
20260504150737 65 260 4.0 15.0 0.00 0.00 0.00 38 1005.9
20260504150637 65 288 4.0 15.0 0.00 0.00 0.00 38 1005.9
20260504150616 65 225 4.0 15.0 0.00 0.00 0.00 38 1005.9
20260504150537 64 235 4.0 15.0 0.00 0.00 0.00 38 1005.9
20260504150436 64 315 4.0 15.0 0.00 0.00 0.00 38 1006.0
20260504150329 64 351 4.0 15.0 0.00 0.00 0.00 37 1005.9
20260504150229 64 316 4.0 15.0 0.00 0.00 0.00 37 1006.0
20260504150130 64 132 4.0 15.0 0.00 0.00 0.00 37 1006.0
20260504150111 64 276 4.0 15.0 0.00 0.00 0.00 37 1006.0
20260504141320 60 30 3.0 10.0 0.00 0.00 0.00 45 1007.0
20260504141305 60 276 3.0 10.0 0.00 0.00 0.00 43 1006.9
20260504141250 60 122 3.0 10.0 0.00 0.00 0.00 44 1006.9
20260504140929 59 315 3.0 10.0 0.00 0.00 0.00 44 1006.9
20260504140829 59 228 3.0 10.0 0.00 0.00 0.00 44 1007.0
20260504140723 59 312 3.0 10.0 0.00 0.00 0.00 44 1007.1
20260504140623 59 129 3.0 10.0 0.00 0.00 0.00 44 1007.0
20260504140529 59 249 3.0 10.0 0.00 0.00 0.00 44 1007.0
20260504140522 59 174 3.0 10.0 0.00 0.00 0.00 44 1007.0
20260504140422 59 264 3.0 10.0 0.00 0.00 0.00 44 1007.0
20260504140324 59 36 2.0 10.0 0.00 0.00 0.00 44 1007.0
20260504140216 59 304 3.0 8.0 0.00 0.00 0.00 44 1007.1
20260504140117 59 128 2.0 8.0 0.00 0.00 0.00 45 1007.0
20260504130754 56 117 3.0 10.0 0.00 0.00 0.00 49 1007.5
20260504130746 56 297 3.0 10.0 0.00 0.00 0.00 49 1007.5
20260504130528 56 127 3.0 7.0 0.00 0.00 0.00 51 1007.5
20260504130428 56 77 2.0 7.0 0.00 0.00 0.00 49 1007.4
20260504130327 56 131 2.0 7.0 0.00 0.00 0.00 50 1007.4
20260504130227 56 156 2.0 7.0 0.00 0.00 0.00 51 1007.4
20260504130127 56 142 3.0 9.0 0.00 0.00 0.00 51 1007.4
20260504120315 49 221 1.0 4.0 0.00 0.00 0.00 62 1007.8
20260504120215 49 5 1.0 6.0 0.00 0.00 0.00 63 1007.8
20260504120116 49 115 1.0 6.0 0.00 0.00 0.00 63 1007.8
20260504110708 40 87 0.0 0.0 0.00 0.00 0.00 82 1008.0
20260504110621 40 88 0.0 0.0 0.00 0.00 0.00 82 1008.0
20260504110609 40 88 0.0 0.0 0.00 0.00 0.00 82 1008.0
20260504110521 40 88 0.0 0.0 0.00 0.00 0.00 82 1008.0
20260504110507 40 88 0.0 0.0 0.00 0.00 0.00 82 1008.0
20260504110309 40 88 0.0 0.0 0.00 0.00 0.00 82 1008.0
20260504110207 40 88 0.0 0.0 0.00 0.00 0.00 82 1008.0
20260504110108 40 88 0.0 0.0 0.00 0.00 0.00 82 1007.9
20260504100612 40 87 0.0 0.0 0.00 0.00 0.00 80 1008.1
20260504100335 40 88 0.0 0.0 0.00 0.00 0.00 81 1008.1
20260504100255 40 87 0.0 0.0 0.00 0.00 0.00 81 1008.1
20260504100153 39 88 0.0 0.0 0.00 0.00 0.00 81 1008.1
20260504100118 39 88 0.0 0.0 0.00 0.00 0.00 83 1008.1
20260504100111 39 88 0.0 0.0 0.00 0.00 0.00 82 1008.2
20260504090140 40 87 0.0 0.0 0.00 0.00 0.00 82 1008.0
20260504081953 39 87 0.0 0.0 0.00 0.00 0.00 87 1008.0
20260504081847 39 88 0.0 0.0 0.00 0.00 0.00 87 1008.0
20260504081748 39 86 0.0 0.0 0.00 0.00 0.00 87 1008.0
20260504081647 39 87 0.0 0.0 0.00 0.00 0.00 87 1008.0
20260504081628 39 88 0.0 0.0 0.00 0.00 0.00 87 1008.0
20260504081547 39 86 0.0 0.0 0.00 0.00 0.00 87 1008.0
20260504081446 39 88 0.0 0.0 0.00 0.00 0.00 87 1008.0
20260504081351 39 86 0.0 0.0 0.00 0.00 0.00 87 1008.0
20260504081343 39 86 0.0 0.0 0.00 0.00 0.00 87 1008.0
20260504081250 39 86 0.0 0.0 0.00 0.00 0.00 87 1008.0
20260504081233 39 86 0.0 0.0 0.00 0.00 0.00 87 1008.0
20260504081043 39 88 0.0 0.0 0.00 0.00 0.00 87 1008.0
20260504081015 39 87 0.0 0.0 0.00 0.00 0.00 87 1008.0
20260504080850 39 88 0.0 0.0 0.00 0.00 0.00 87 1008.0
20260504080616 39 86 0.0 0.0 0.00 0.00 0.00 87 1008.0
20260504080540 39 86 0.0 0.0 0.00 0.00 0.00 87 1008.0
20260504080437 39 86 0.0 1.0 0.00 0.00 0.00 87 1008.0
20260504080400 39 86 0.0 1.0 0.00 0.00 0.00 87 1008.0
20260504080350 39 86 0.0 1.0 0.00 0.00 0.00 87 1008.0
20260504080203 39 87 0.0 1.0 0.00 0.00 0.00 87 1008.0
20260504080141 39 87 0.0 1.0 0.00 0.00 0.00 87 1008.0
20260504070323 38 86 0.0 0.0 0.00 0.00 0.00 87 1008.1
20260504070224 38 86 0.0 0.0 0.00 0.00 0.00 87 1008.1
20260504070121 38 86 0.0 0.0 0.00 0.00 0.00 87 1008.1
20260504070104 38 86 0.0 0.0 0.00 0.00 0.00 87 1008.1
20260504060243 37 85 0.0 0.0 0.00 0.00 0.00 89 1007.9
20260504050623 35 85 0.0 0.0 0.00 0.00 0.00 89 1007.9
20260504050524 35 85 0.0 0.0 0.00 0.00 0.00 89 1008.0
20260504050428 35 85 0.0 0.0 0.00 0.00 0.00 89 1008.0
20260504050422 35 84 0.0 0.0 0.00 0.00 0.00 89 1008.0
20260504050341 35 85 0.0 0.0 0.00 0.00 0.00 89 1008.0
20260504050331 35 84 0.0 0.0 0.00 0.00 0.00 89 1008.0
20260504050142 34 85 0.0 0.0 0.00 0.00 0.00 89 1008.0
20260504050132 35 84 0.0 0.0 0.00 0.00 0.00 89 1008.0
20260504045944 34 85 0.0 0.0 0.00 0.00 0.00 89 1008.0
20260504045929 34 85 0.0 0.0 0.00 0.00 0.00 89 1008.0
20260504045748 34 84 0.0 0.0 0.00 0.00 0.00 89 1008.0
20260504045624 34 84 0.0 0.0 0.00 0.00 0.00 89 1008.1
20260504045423 34 85 0.0 0.0 0.00 0.00 0.00 89 1008.1
20260504045408 34 84 0.0 0.0 0.00 0.00 0.00 89 1008.1
20260504045333 34 85 0.0 0.0 0.00 0.00 0.00 89 1008.1
20260504045324 34 85 0.0 0.0 0.00 0.00 0.00 89 1008.1
20260504045143 34 85 0.0 0.0 0.00 0.00 0.00 89 1008.1
20260504045107 34 85 0.0 0.0 0.00 0.00 0.00 89 1008.1
20260504045037 34 84 0.0 0.0 0.00 0.00 0.00 89 1008.1
20260504044905 34 84 0.0 0.0 0.00 0.00 0.00 89 1008.1
20260504044758 34 84 0.0 0.0 0.00 0.00 0.00 89 1008.1
20260504044736 34 85 0.0 0.0 0.00 0.00 0.00 89 1008.2
20260504044614 34 85 0.0 0.0 0.00 0.00 0.00 89 1008.1
20260504044423 33 85 0.0 0.0 0.00 0.00 0.00 88 1008.1
20260504044402 33 84 0.0 0.0 0.00 0.00 0.00 88 1008.1
20260504044344 33 85 0.0 0.0 0.00 0.00 0.00 88 1008.1
20260504044202 33 85 0.0 0.0 0.00 0.00 0.00 88 1008.0
20260504044155 33 85 0.0 0.0 0.00 0.00 0.00 88 1008.1
20260504044138 33 84 0.0 0.0 0.00 0.00 0.00 88 1008.0
20260504044121 33 84 0.0 0.0 0.00 0.00 0.00 88 1008.0
20260504044000 33 85 0.0 0.0 0.00 0.00 0.00 88 1008.0
20260504043729 33 85 0.0 0.0 0.00 0.00 0.00 88 1008.1
20260504043717 33 85 0.0 0.0 0.00 0.00 0.00 88 1008.1
20260504043421 33 85 0.0 0.0 0.00 0.00 0.00 88 1008.1
20260504043346 33 85 0.0 0.0 0.00 0.00 0.00 88 1008.1
20260504043245 33 85 0.0 0.0 0.00 0.00 0.00 88 1008.1
20260504043143 33 84 0.0 0.0 0.00 0.00 0.00 88 1008.1
20260504043040 33 85 0.0 0.0 0.00 0.00 0.00 88 1008.1
20260504042941 33 85 0.0 0.0 0.00 0.00 0.00 88 1008.0
20260504042922 33 84 0.0 0.0 0.00 0.00 0.00 88 1008.1
20260504042839 33 85 0.0 0.0 0.00 0.00 0.00 88 1008.1
20260504042734 33 85 0.0 0.0 0.00 0.00 0.00 87 1008.1
20260504042633 33 85 0.0 0.0 0.00 0.00 0.00 87 1008.1
20260504042532 33 84 0.0 0.0 0.00 0.00 0.00 87 1008.1
20260504042432 33 84 0.0 0.0 0.00 0.00 0.00 87 1008.1
20260504042422 33 85 0.0 0.0 0.00 0.00 0.00 87 1008.0
20260504042334 33 85 0.0 0.0 0.00 0.00 0.00 87 1008.0
20260504042236 33 85 0.0 0.0 0.00 0.00 0.00 87 1008.0
20260504042134 33 85 0.0 0.0 0.00 0.00 0.00 87 1008.0
20260504042125 33 85 0.0 0.0 0.00 0.00 0.00 86 1008.0
20260504042120 33 85 0.0 0.0 0.00 0.00 0.00 86 1007.9
20260504042109 33 85 0.0 0.0 0.00 0.00 0.00 86 1008.0
20260504041943 33 85 0.0 0.0 0.00 0.00 0.00 86 1008.0
20260504041820 33 85 0.0 0.0 0.00 0.00 0.00 86 1007.9
20260504041813 33 84 0.0 0.0 0.00 0.00 0.00 87 1007.9
20260504041802 33 85 0.0 0.0 0.00 0.00 0.00 86 1008.0
20260504041427 33 85 0.0 0.0 0.00 0.00 0.00 87 1008.0
20260504041418 33 84 0.0 0.0 0.00 0.00 0.00 87 1008.0
20260504041327 33 85 0.0 0.0 0.00 0.00 0.00 87 1007.9
20260504041226 33 84 0.0 0.0 0.00 0.00 0.00 86 1008.0
20260504041128 33 85 0.0 0.0 0.00 0.00 0.00 86 1008.0
20260504041055 33 85 0.0 0.0 0.00 0.00 0.00 86 1007.9
20260504041046 33 85 0.0 0.0 0.00 0.00 0.00 86 1007.9
20260504040920 34 84 0.0 0.0 0.00 0.00 0.00 86 1007.9
20260504040827 34 85 0.0 0.0 0.00 0.00 0.00 86 1007.9
20260504040729 34 85 0.0 0.0 0.00 0.00 0.00 86 1007.9
20260504040624 34 84 0.0 0.0 0.00 0.00 0.00 86 1007.9
20260504040525 34 84 0.0 0.0 0.00 0.00 0.00 86 1007.8
20260504040427 34 84 0.0 0.0 0.00 0.00 0.00 86 1007.9
20260504040417 34 85 0.0 0.0 0.00 0.00 0.00 86 1007.9
20260504040323 34 85 0.0 0.0 0.00 0.00 0.00 86 1007.8
20260504040221 34 85 0.0 0.0 0.00 0.00 0.00 86 1007.8
20260504040118 34 84 0.0 0.0 0.00 0.00 0.00 86 1007.9
20260504040020 34 85 0.0 0.0 0.00 0.00 0.00 86 1007.8
20260504035920 34 84 0.0 0.0 0.00 0.00 0.00 86 1007.9
20260504035844 34 85 0.0 0.0 0.00 0.00 0.00 85 1007.9
20260504035834 34 85 0.0 0.0 0.00 0.00 0.00 86 1007.9
20260504035642 34 84 0.0 0.0 0.00 0.00 0.00 85 1007.8
20260504035621 34 85 0.0 0.0 0.00 0.00 0.00 85 1007.9
20260504035538 34 84 0.0 0.0 0.00 0.00 0.00 85 1007.9
20260504035417 34 85 0.0 0.0 0.00 0.00 0.00 85 1007.8
20260504035318 34 84 0.0 0.0 0.00 0.00 0.00 85 1007.8
20260504035214 34 84 0.0 0.0 0.00 0.00 0.00 85 1007.9
20260504035114 34 84 0.0 0.0 0.00 0.00 0.00 85 1007.8
20260504035009 34 84 0.0 0.0 0.00 0.00 0.00 85 1007.9
20260504034919 34 85 0.0 0.0 0.00 0.00 0.00 85 1007.9
20260504034909 34 84 0.0 0.0 0.00 0.00 0.00 85 1007.9
20260504034810 34 85 0.0 0.0 0.00 0.00 0.00 85 1007.8
20260504034734 34 84 0.0 0.0 0.00 0.00 0.00 85 1007.8
20260504034723 34 84 0.0 0.0 0.00 0.00 0.00 85 1007.8
20260504034503 34 85 0.0 0.0 0.00 0.00 0.00 85 1007.8
20260504034417 34 84 0.0 0.0 0.00 0.00 0.00 85 1007.8
20260504034401 34 84 0.0 0.0 0.00 0.00 0.00 85 1007.8
20260504034301 34 85 0.0 0.0 0.00 0.00 0.00 85 1007.8
20260504034203 34 85 0.0 0.0 0.00 0.00 0.00 85 1007.7
20260504034100 34 85 0.0 0.0 0.00 0.00 0.00 85 1007.8
20260504034000 34 85 0.0 0.0 0.00 0.00 0.00 85 1007.8
20260504033933 34 85 0.0 0.0 0.00 0.00 0.00 85 1007.8
20260504033926 34 85 0.0 0.0 0.00 0.00 0.00 85 1007.7
20260504033914 34 85 0.0 0.0 0.00 0.00 0.00 85 1007.7
20260504033655 34 85 0.0 0.0 0.00 0.00 0.00 85 1007.8
20260504033553 35 85 0.0 0.0 0.00 0.00 0.00 85 1007.7
20260504033452 35 85 0.0 0.0 0.00 0.00 0.00 85 1007.7
20260504033415 35 85 0.0 0.0 0.00 0.00 0.00 85 1007.8
20260504033406 35 84 0.0 0.0 0.00 0.00 0.00 85 1007.8
20260504033352 35 85 0.0 0.0 0.00 0.00 0.00 85 1007.7
20260504033234 35 85 0.0 0.0 0.00 0.00 0.00 84 1007.8
20260504033223 35 84 0.0 0.0 0.00 0.00 0.00 85 1007.8
20260504033059 35 85 0.0 0.0 0.00 0.00 0.00 85 1007.8
20260504033042 35 85 0.0 0.0 0.00 0.00 0.00 85 1007.8
20260504032917 35 84 0.0 0.0 0.00 0.00 0.00 84 1007.8
20260504032542 35 84 0.0 0.0 0.00 0.00 0.00 84 1007.8
20260504032443 35 85 0.0 0.0 0.00 0.00 0.00 84 1007.7
20260504032358 35 84 0.0 0.0 0.00 0.00 0.00 84 1007.8
20260504032338 35 85 0.0 0.0 0.00 0.00 0.00 84 1007.8
20260504032240 35 85 0.0 0.0 0.00 0.00 0.00 84 1007.8
20260504032210 35 84 0.0 0.0 0.00 0.00 0.00 84 1007.7
20260504032048 35 84 0.0 0.0 0.00 0.00 0.00 84 1007.7
20260504031853 35 85 0.0 0.0 0.00 0.00 0.00 84 1007.7
20260504031830 35 84 0.0 0.0 0.00 0.00 0.00 83 1007.7
20260504031729 35 85 0.0 0.0 0.00 0.00 0.00 83 1007.7
20260504031629 35 84 0.0 0.0 0.00 0.00 0.00 83 1007.7
20260504031528 35 84 0.0 0.0 0.00 0.00 0.00 83 1007.7
20260504031424 35 85 0.0 0.0 0.00 0.00 0.00 83 1007.7
20260504031324 35 85 0.0 0.0 0.00 0.00 0.00 83 1007.7
20260504031224 35 84 0.0 0.0 0.00 0.00 0.00 83 1007.7
20260504031124 35 84 0.0 0.0 0.00 0.00 0.00 83 1007.7
20260504031025 35 85 0.0 0.0 0.00 0.00 0.00 83 1007.7
20260504030917 35 85 0.0 0.0 0.00 0.00 0.00 83 1007.7
20260504030840 35 84 0.0 0.0 0.00 0.00 0.00 83 1007.7
20260504030817 35 85 0.0 0.0 0.00 0.00 0.00 83 1007.7
20260504030717 35 85 0.0 0.0 0.00 0.00 0.00 83 1007.7
20260504030643 35 84 0.0 0.0 0.00 0.00 0.00 82 1007.7
20260504030633 35 85 0.0 0.0 0.00 0.00 0.00 82 1007.7
20260504030412 36 85 0.0 0.0 0.00 0.00 0.00 82 1007.7
20260504030336 36 84 0.0 0.0 0.00 0.00 0.00 82 1007.7
20260504030311 36 85 0.0 0.0 0.00 0.00 0.00 82 1007.7
20260504030249 36 85 0.0 0.0 0.00 0.00 0.00 82 1007.7
20260504030238 36 85 0.0 0.0 0.00 0.00 0.00 82 1007.7
20260504030117 36 84 0.0 0.0 0.00 0.00 0.00 82 1007.7
20260504030100 36 85 0.0 0.0 0.00 0.00 0.00 82 1007.7
20260504025806 36 84 0.0 0.0 0.00 0.00 0.00 82 1007.8
20260504025705 36 85 0.0 0.0 0.00 0.00 0.00 82 1007.7
20260504025605 36 84 0.0 0.0 0.00 0.00 0.00 82 1007.8
20260504025507 36 85 0.0 0.0 0.00 0.00 0.00 81 1007.7
20260504025404 36 85 0.0 0.0 0.00 0.00 0.00 81 1007.8
20260504025321 36 85 0.0 0.0 0.00 0.00 0.00 81 1007.8
20260504025305 36 84 0.0 0.0 0.00 0.00 0.00 81 1007.8
20260504025204 36 85 0.0 0.0 0.00 0.00 0.00 81 1007.7
20260504025101 36 85 0.0 0.0 0.00 0.00 0.00 80 1007.8
20260504025000 36 85 0.0 0.0 0.00 0.00 0.00 80 1007.7
20260504024857 36 85 0.0 0.0 0.00 0.00 0.00 80 1007.7
20260504024817 36 85 0.0 0.0 0.00 0.00 0.00 80 1007.7
20260504024757 36 85 0.0 0.0 0.00 0.00 0.00 80 1007.7
20260504024659 36 85 0.0 0.0 0.00 0.00 0.00 80 1007.8
20260504024555 36 84 0.0 0.0 0.00 0.00 0.00 80 1007.8
20260504024454 36 85 0.0 0.0 0.00 0.00 0.00 80 1007.8
20260504024347 36 85 0.0 0.0 0.00 0.00 0.00 80 1007.7
20260504024309 36 84 0.0 0.0 0.00 0.00 0.00 81 1007.7
20260504024247 37 84 0.0 0.0 0.00 0.00 0.00 81 1007.7
20260504024147 37 84 0.0 0.0 0.00 0.00 0.00 80 1007.8
20260504024115 37 84 0.0 0.0 0.00 0.00 0.00 80 1007.7
20260504024106 37 84 0.0 0.0 0.00 0.00 0.00 80 1007.7
20260504023844 37 85 0.0 0.0 0.00 0.00 0.00 80 1007.7
20260504023803 37 84 0.0 0.0 0.00 0.00 0.00 80 1007.7
20260504023744 37 84 0.0 0.0 0.00 0.00 0.00 80 1007.7
20260504023646 37 85 0.0 0.0 0.00 0.00 0.00 79 1007.7
20260504023544 37 84 0.0 0.0 0.00 0.00 0.00 79 1007.7
20260504023442 37 85 0.0 0.0 0.00 0.00 0.00 79 1007.7
20260504023341 37 84 0.0 0.0 0.00 0.00 0.00 79 1007.7
20260504023258 37 84 0.0 0.0 0.00 0.00 0.00 79 1007.7
20260504023238 37 85 0.0 0.0 0.00 0.00 0.00 79 1007.7
20260504023212 37 85 0.0 0.0 0.00 0.00 0.00 79 1007.7
20260504023048 37 84 0.0 0.0 0.00 0.00 0.00 78 1007.7
20260504023034 37 84 0.0 0.0 0.00 0.00 0.00 78 1007.7
20260504022910 37 85 0.0 0.0 0.00 0.00 0.00 78 1007.7
20260504022746 37 85 0.0 0.0 0.00 0.00 0.00 78 1007.7
20260504022529 37 85 0.0 0.0 0.00 0.00 0.00 78 1007.7
20260504022428 37 85 0.0 0.0 0.00 0.00 0.00 78 1007.7
20260504022355 37 84 0.0 0.0 0.00 0.00 0.00 78 1007.7
20260504022345 37 84 0.0 0.0 0.00 0.00 0.00 78 1007.7
20260504022333 37 85 0.0 0.0 0.00 0.00 0.00 78 1007.7
20260504022157 37 85 0.0 0.0 0.00 0.00 0.00 78 1007.7
20260504022039 37 85 0.0 0.0 0.00 0.00 0.00 79 1007.8
20260504022029 37 85 0.0 0.0 0.00 0.00 0.00 79 1007.7
20260504022012 37 84 0.0 0.0 0.00 0.00 0.00 79 1007.7
20260504021721 37 85 0.0 0.0 0.00 0.00 0.00 79 1007.7
20260504021645 37 85 0.0 0.0 0.00 0.00 0.00 79 1007.7
20260504021636 37 84 0.0 0.0 0.00 0.00 0.00 79 1007.7
20260504021419 37 84 0.0 0.0 0.00 0.00 0.00 79 1007.7
20260504021317 37 84 0.0 0.0 0.00 0.00 0.00 79 1007.7
20260504021234 37 85 0.0 0.0 0.00 0.00 0.00 79 1007.7
20260504021214 37 84 0.0 0.0 0.00 0.00 0.00 79 1007.7
20260504021116 37 84 0.0 0.0 0.00 0.00 0.00 79 1007.7
20260504021014 37 85 0.0 0.0 0.00 0.00 0.00 79 1007.7
20260504020951 37 84 0.0 0.0 0.00 0.00 0.00 78 1007.6
20260504020913 37 84 0.0 0.0 0.00 0.00 0.00 79 1007.7
20260504020841 37 84 0.0 0.0 0.00 0.00 0.00 78 1007.7
20260504020706 37 84 0.0 0.0 0.00 0.00 0.00 78 1007.6
20260504020605 37 84 0.0 0.0 0.00 0.00 0.00 78 1007.6
20260504020505 37 84 0.0 0.0 0.00 0.00 0.00 78 1007.6
20260504020405 38 84 0.0 0.0 0.00 0.00 0.00 78 1007.6
20260504020332 38 85 0.0 0.0 0.00 0.00 0.00 78 1007.6
20260504020309 38 84 0.0 0.0 0.00 0.00 0.00 78 1007.6
20260504020058 38 84 0.0 0.0 0.00 0.00 0.00 78 1007.6
20260504015959 38 85 0.0 0.0 0.00 0.00 0.00 78 1007.6
20260504015900 38 84 0.0 0.0 0.00 0.00 0.00 78 1007.6
20260504015755 38 85 0.0 0.0 0.00 0.00 0.00 77 1007.6
20260504015716 38 84 0.0 0.0 0.00 0.00 0.00 77 1007.6
20260504015653 38 85 0.0 0.0 0.00 0.00 0.00 77 1007.6
20260504015643 38 84 0.0 0.0 0.00 0.00 0.00 76 1007.5
20260504015637 38 84 0.0 0.0 0.00 0.00 0.00 76 1007.5
20260504015626 38 84 0.0 0.0 0.00 0.00 0.00 76 1007.6
20260504015321 38 85 0.0 0.0 0.00 0.00 0.00 76 1007.5
20260504015309 38 85 0.0 0.0 0.00 0.00 0.00 77 1007.5
20260504015258 38 84 0.0 0.0 0.00 0.00 0.00 76 1007.5
20260504015046 38 85 0.0 0.0 0.00 0.00 0.00 76 1007.5
20260504015022 38 84 0.0 0.0 0.00 0.00 0.00 76 1007.5
20260504015018 38 85 0.0 0.0 0.00 0.00 0.00 76 1007.5
20260504015006 38 84 0.0 0.0 0.00 0.00 0.00 76 1007.5
20260504014817 38 85 0.0 0.0 0.00 0.00 0.00 76 1007.5
20260504014645 38 84 0.0 0.0 0.00 0.00 0.00 76 1007.5
20260504014547 38 85 0.0 0.0 0.00 0.00 0.00 76 1007.5
20260504014443 38 84 0.0 0.0 0.00 0.00 0.00 75 1007.5
20260504014409 38 85 0.0 0.0 0.00 0.00 0.00 75 1007.5
20260504014359 38 84 0.0 0.0 0.00 0.00 0.00 75 1007.5
20260504014158 38 84 0.0 0.0 0.00 0.00 0.00 75 1007.5
20260504014138 38 85 0.0 0.0 0.00 0.00 0.00 75 1007.5
20260504014102 38 84 0.0 0.0 0.00 0.00 0.00 75 1007.5
20260504014054 38 85 0.0 0.0 0.00 0.00 0.00 75 1007.5
20260504013849 38 85 0.0 0.0 0.00 0.00 0.00 76 1007.4
20260504013842 38 84 0.0 0.0 0.00 0.00 0.00 75 1007.4
20260504013824 38 84 0.0 0.0 0.00 0.00 0.00 76 1007.4
20260504013812 38 84 0.0 0.0 0.00 0.00 0.00 76 1007.4
20260504013538 38 85 0.0 0.0 0.00 0.00 0.00 76 1007.5
20260504013524 38 84 0.0 0.0 0.00 0.00 0.00 76 1007.4
20260504013403 38 84 0.0 0.0 0.00 0.00 0.00 76 1007.5
20260504013235 38 84 0.0 0.0 0.00 0.00 0.00 76 1007.4
20260504013025 38 84 0.0 0.0 0.00 0.00 0.00 76 1007.4
20260504012927 38 84 0.0 0.0 0.00 0.00 0.00 77 1007.4
20260504012824 38 84 0.0 0.0 0.00 0.00 0.00 77 1007.4
20260504012724 38 85 0.0 0.0 0.00 0.00 0.00 77 1007.4
20260504012642 38 85 0.0 0.0 0.00 0.00 0.00 77 1007.4
20260504012621 38 84 0.0 0.0 0.00 0.00 0.00 77 1007.4
20260504012523 38 84 0.0 0.0 0.00 0.00 0.00 76 1007.4
20260504012434 38 84 0.0 0.0 0.00 0.00 0.00 76 1007.4
20260504012429 38 84 0.0 0.0 0.00 0.00 0.00 76 1007.3
20260504012420 38 84 0.0 0.0 0.00 0.00 0.00 76 1007.4
20260504012405 38 84 0.0 0.0 0.00 0.00 0.00 76 1007.4
20260504012112 38 84 0.0 0.0 0.00 0.00 0.00 76 1007.3
20260504012010 38 84 0.0 0.0 0.00 0.00 0.00 75 1007.3
20260504011911 38 84 0.0 0.0 0.00 0.00 0.00 75 1007.4
20260504011813 39 84 0.0 0.0 0.00 0.00 0.00 75 1007.3
20260504011705 39 84 0.0 0.0 0.00 0.00 0.00 75 1007.3
20260504011627 39 84 0.0 0.0 0.00 0.00 0.00 75 1007.3
20260504011604 39 85 0.0 0.0 0.00 0.00 0.00 75 1007.3
20260504011505 39 85 0.0 0.0 0.00 0.00 0.00 75 1007.3
20260504011453 39 84 0.0 0.0 0.00 0.00 0.00 75 1007.3
20260504011449 39 85 0.0 0.0 0.00 0.00 0.00 74 1007.2
20260504011435 39 85 0.0 0.0 0.00 0.00 0.00 75 1007.3
20260504011304 39 84 0.0 0.0 0.00 0.00 0.00 75 1007.2
20260504011250 39 84 0.0 0.0 0.00 0.00 0.00 74 1007.2
20260504011020 39 84 0.0 0.0 0.00 0.00 0.00 74 1007.2
20260504010800 39 84 0.0 0.0 0.00 0.00 0.00 73 1007.2
20260504010657 39 84 0.0 0.0 0.00 0.00 0.00 73 1007.2
20260504010617 39 84 0.0 0.0 0.00 0.00 0.00 73 1007.1
20260504010558 39 84 0.0 0.0 0.00 0.00 0.00 73 1007.1
20260504010458 39 84 0.0 0.0 0.00 0.00 0.00 73 1007.1
20260504010442 40 85 0.0 0.0 0.00 0.00 0.00 72 1007.1
20260504010435 40 84 0.0 0.0 0.00 0.00 0.00 72 1007.1
20260504010423 40 84 0.0 0.0 0.00 0.00 0.00 73 1007.1
20260504010111 40 84 0.0 0.0 0.00 0.00 0.00 72 1007.1
20260504010051 40 84 0.0 0.0 0.00 0.00 0.00 72 1007.1
20260504010041 40 85 0.0 0.0 0.00 0.00 0.00 72 1007.0
20260504010035 40 84 0.0 0.0 0.00 0.00 0.00 71 1007.1
20260504010024 40 84 0.0 0.0 0.00 0.00 0.00 72 1007.0
20260504005646 40 85 0.0 0.0 0.00 0.00 0.00 71 1007.0
20260504005606 40 84 0.0 0.0 0.00 0.00 0.00 71 1007.0
20260504005546 40 84 0.0 0.0 0.00 0.00 0.00 71 1007.0
20260504005446 40 84 0.0 0.0 0.00 0.00 0.00 71 1007.0
20260504005344 40 84 0.0 0.0 0.00 0.00 0.00 71 1007.0
20260504005243 40 84 0.0 0.0 0.00 0.00 0.00 71 1007.0
20260504005137 40 84 0.0 0.0 0.00 0.00 0.00 70 1007.0
20260504005036 41 84 0.0 0.0 0.00 0.00 0.00 70 1006.9
20260504004935 41 84 0.0 0.0 0.00 0.00 0.00 70 1006.9
20260504004901 41 84 0.0 0.0 0.00 0.00 0.00 70 1006.9
20260504004851 41 84 0.0 0.0 0.00 0.00 0.00 70 1006.9
20260504004628 41 85 0.0 0.0 0.00 0.00 0.00 70 1006.9
20260504004530 41 84 0.0 0.0 0.00 0.00 0.00 70 1006.9
20260504004430 41 84 0.0 0.0 0.00 0.00 0.00 69 1006.9
20260504004329 41 85 0.0 0.0 0.00 0.00 0.00 68 1006.9
20260504004230 41 85 0.0 0.0 0.00 0.00 0.00 68 1006.8
20260504004126 41 84 0.0 0.0 0.00 0.00 0.00 67 1006.8
20260504004023 42 84 0.0 0.0 0.00 0.00 0.00 66 1006.8
20260504003923 42 84 0.0 0.0 0.00 0.00 0.00 66 1006.8
20260504003824 42 84 0.0 0.0 0.00 0.00 0.00 65 1006.8
20260504003722 42 84 0.0 0.0 0.00 0.00 0.00 65 1006.8
20260504003625 42 84 0.0 0.0 0.00 0.00 0.00 65 1006.8
20260504003541 42 84 0.0 0.0 0.00 0.00 0.00 65 1006.8
20260504003522 42 84 0.0 0.0 0.00 0.00 0.00 65 1006.7
20260504003422 42 85 0.0 0.0 0.00 0.00 0.00 64 1006.8
20260504003319 42 85 0.0 0.0 0.00 0.00 0.00 64 1006.8
20260504003218 43 84 0.0 0.0 0.00 0.00 0.00 64 1006.7
20260504003149 43 84 0.0 0.0 0.00 0.00 0.00 63 1006.7
20260504003136 43 84 0.0 0.0 0.00 0.00 0.00 64 1006.7
20260504003125 43 84 0.0 0.0 0.00 0.00 0.00 64 1006.7
20260504002918 43 85 0.0 0.0 0.00 0.00 0.00 63 1006.8
20260504002813 43 84 0.0 0.0 0.00 0.00 0.00 62 1006.7
20260504002712 43 85 0.0 0.0 0.00 0.00 0.00 62 1006.7
20260504002606 44 84 0.0 0.0 0.00 0.00 0.00 62 1006.7
20260504002528 44 85 0.0 0.0 0.00 0.00 0.00 62 1006.7
20260504002507 44 84 0.0 0.0 0.00 0.00 0.00 62 1006.7
20260504002408 44 84 0.0 0.0 0.00 0.00 0.00 61 1006.7
20260504002308 44 85 0.0 0.0 0.00 0.00 0.00 60 1006.7
20260504002207 44 84 0.0 0.0 0.00 0.00 0.00 61 1006.7
20260504002131 44 84 0.0 0.0 0.00 0.00 0.00 60 1006.6
20260504002121 44 84 0.0 0.0 0.00 0.00 0.00 60 1006.7
20260504002110 44 84 0.0 0.0 0.00 0.00 0.00 60 1006.6
20260504001859 45 85 0.0 0.0 0.00 0.00 0.00 59 1006.6
20260504001758 45 85 0.0 0.0 0.00 0.00 0.00 58 1006.6
20260504001700 45 84 0.0 0.0 0.00 0.00 0.00 57 1006.6
20260504001558 45 84 0.0 0.0 0.00 0.00 0.00 57 1006.6
20260504001516 45 84 0.0 0.0 0.00 0.00 0.00 57 1006.6
20260504001457 45 85 0.0 0.0 0.00 0.00 0.00 57 1006.6
20260504001358 45 85 0.0 1.0 0.00 0.00 0.00 57 1006.6
20260504001256 45 84 0.0 1.0 0.00 0.00 0.00 57 1006.6
20260504001155 45 84 0.0 1.0 0.00 0.00 0.00 57 1006.6
20260504001049 45 84 0.0 1.0 0.00 0.00 0.00 56 1006.5
20260504001009 45 85 0.0 1.0 0.00 0.00 0.00 56 1006.6
20260504000949 45 85 0.0 1.0 0.00 0.00 0.00 56 1006.6
20260504000847 45 85 0.0 1.0 0.00 0.00 0.00 56 1006.5
20260504000747 46 85 0.0 1.0 0.00 0.00 0.00 56 1006.5
20260504000648 46 85 0.0 1.0 0.00 0.00 0.00 56 1006.5
20260504000542 46 84 0.0 1.0 0.00 0.00 0.00 55 1006.5
20260504000504 46 85 0.0 1.0 0.00 0.00 0.00 55 1006.5
20260504000442 46 84 0.0 1.0 0.00 0.00 0.00 55 1006.5
20260504000409 46 84 0.0 0.0 0.00 0.00 0.00 55 1006.5
20260504000358 46 84 0.0 0.0 0.00 0.00 0.00 55 1006.5
20260504000141 46 85 0.0 0.0 0.00 0.00 0.00 55 1006.4
20260504000041 46 84 0.0 1.0 0.00 0.00 0.00 54 1006.4
20260503235938 46 85 0.0 1.0 0.00 0.00 0.00 54 1006.4
20260503235841 46 85 0.0 1.0 0.00 0.00 0.00 54 1006.4
20260503235737 47 85 0.0 1.0 0.00 0.00 0.00 54 1006.5
20260503235635 47 85 0.0 1.0 0.00 0.00 0.00 53 1006.4
20260503235553 47 84 0.0 1.0 0.00 0.00 0.00 53 1006.4
20260503235542 47 85 0.0 1.0 0.00 0.00 0.00 53 1006.4
20260503235330 47 84 0.0 1.0 0.00 0.00 0.00 52 1006.3
20260503235229 47 84 0.0 1.0 0.00 0.00 0.00 52 1006.4
20260503235130 47 84 0.0 1.0 0.00 0.00 0.00 53 1006.4
20260503235026 47 85 0.0 1.0 0.00 0.00 0.00 52 1006.4
20260503234924 47 84 0.0 1.0 0.00 0.00 0.00 51 1006.4
20260503234826 47 85 0.0 2.0 0.00 0.00 0.00 51 1006.4
20260503234726 47 85 0.0 2.0 0.00 0.00 0.00 51 1006.4
20260503234644 47 84 0.0 2.0 0.00 0.00 0.00 50 1006.3
20260503234635 47 84 0.0 2.0 0.00 0.00 0.00 51 1006.3
20260503234441 47 84 0.0 2.0 0.00 0.00 0.00 50 1006.3
20260503234418 47 85 0.0 2.0 0.00 0.00 0.00 50 1006.3
20260503234317 47 9 0.0 2.0 0.00 0.00 0.00 51 1006.3
20260503234217 48 266 0.0 2.0 0.00 0.00 0.00 51 1006.3
20260503234118 48 267 0.0 2.0 0.00 0.00 0.00 50 1006.3
20260503234018 48 267 0.0 2.0 0.00 0.00 0.00 50 1006.3
20260503233951 48 0 0.0 1.0 0.00 0.00 0.00 50 1006.3
20260503233944 48 267 0.0 2.0 0.00 0.00 0.00 51 1006.3
20260503233934 48 299 0.0 2.0 0.00 0.00 0.00 51 1006.3
20260503233714 48 0 0.0 1.0 0.00 0.00 0.00 49 1006.3
20260503233612 48 0 0.0 1.0 0.00 0.00 0.00 50 1006.3
20260503233504 48 9 0.0 1.0 0.00 0.00 0.00 49 1006.2
20260503233429 48 8 0.0 1.0 0.00 0.00 0.00 50 1006.2
20260503233407 48 9 0.0 1.0 0.00 0.00 0.00 50 1006.2
20260503233305 48 9 0.0 1.0 0.00 0.00 0.00 50 1006.2
20260503233207 48 8 0.0 1.0 0.00 0.00 0.00 49 1006.2
20260503233106 48 8 0.0 1.0 0.00 0.00 0.00 49 1006.2
20260503233001 48 9 0.0 2.0 0.00 0.00 0.00 49 1006.1
20260503232923 48 8 0.0 2.0 0.00 0.00 0.00 49 1006.1
20260503232858 48 8 0.0 2.0 0.00 0.00 0.00 48 1006.1
20260503232825 48 11 0.0 2.0 0.00 0.00 0.00 49 1006.1
20260503232815 48 9 0.0 2.0 0.00 0.00 0.00 48 1006.1
20260503232558 48 30 0.0 2.0 0.00 0.00 0.00 49 1006.1
20260503232455 49 30 0.0 2.0 0.00 0.00 0.00 49 1006.1
20260503232428 49 30 0.0 2.0 0.00 0.00 0.00 48 1006.1
20260503232421 49 30 0.0 2.0 0.00 0.00 0.00 49 1006.1
20260503232412 49 31 0.0 2.0 0.00 0.00 0.00 48 1006.1
20260503232154 49 30 0.0 2.0 0.00 0.00 0.00 48 1006.1
20260503232055 49 36 0.0 7.0 0.00 0.00 0.00 47 1006.1
20260503231952 49 51 0.0 7.0 0.00 0.00 0.00 48 1006.1
20260503231922 49 53 0.0 7.0 0.00 0.00 0.00 47 1006.1
20260503231852 49 53 0.0 7.0 0.00 0.00 0.00 47 1006.1
20260503231752 49 53 0.0 7.0 0.00 0.00 0.00 47 1006.1
20260503231733 49 267 0.0 7.0 0.00 0.00 0.00 47 1006.1
20260503231729 49 267 0.0 7.0 0.00 0.00 0.00 47 1006.1
20260503231716 49 47 0.0 7.0 0.00 0.00 0.00 47 1006.1
20260503231420 49 267 1.0 7.0 0.00 0.00 0.00 47 1006.0
20260503231342 49 355 1.0 7.0 0.00 0.00 0.00 47 1006.0
20260503231242 49 344 1.0 7.0 0.00 0.00 0.00 46 1006.0
20260503231143 49 280 1.0 7.0 0.00 0.00 0.00 47 1006.0
20260503231042 49 312 0.0 3.0 0.00 0.00 0.00 47 1006.0
20260503230938 49 319 1.0 3.0 0.00 0.00 0.00 48 1006.0
20260503230920 49 319 1.0 3.0 0.00 0.00 0.00 47 1006.0
20260503230841 50 319 1.0 3.0 0.00 0.00 0.00 47 1006.0
20260503230741 50 319 1.0 3.0 0.00 0.00 0.00 47 1006.0
20260503230709 50 319 1.0 3.0 0.00 0.00 0.00 46 1006.0
20260503230546 50 312 1.0 3.0 0.00 0.00 0.00 45 1006.0
20260503230419 50 29 1.0 4.0 0.00 0.00 0.00 45 1006.0
20260503230328 50 293 1.0 4.0 0.00 0.00 0.00 45 1005.9
20260503230229 50 296 1.0 5.0 0.00 0.00 0.00 46 1006.0
20260503230129 50 280 1.0 5.0 0.00 0.00 0.00 45 1006.0
20260503230059 50 13 1.0 5.0 0.00 0.00 0.00 45 1005.9
20260503230052 51 285 1.0 5.0 0.00 0.00 0.00 45 1005.9
20260503230045 51 285 1.0 5.0 0.00 0.00 0.00 44 1005.9
20260503230037 50 66 1.0 5.0 0.00 0.00 0.00 45 1005.9
20260503230013 50 58 1.0 5.0 0.00 0.00 0.00 45 1005.9
20260503225522 51 285 1.0 5.0 0.00 0.00 0.00 44 1005.9
20260503225451 51 64 1.0 5.0 0.00 0.00 0.00 44 1005.9
20260503225435 51 51 1.0 5.0 0.00 0.00 0.00 44 1005.9
20260503225217 51 351 1.0 6.0 0.00 0.00 0.00 44 1005.8
20260503225142 51 281 1.0 9.0 0.00 0.00 0.00 44 1005.9
20260503225133 51 283 1.0 6.0 0.00 0.00 0.00 44 1005.8
20260503224914 50 266 1.0 9.0 0.00 0.00 0.00 44 1005.8
20260503224836 50 266 1.0 9.0 0.00 0.00 0.00 45 1005.8
20260503224712 50 294 1.0 9.0 0.00 0.00 0.00 44 1005.7
20260503224704 50 46 1.0 9.0 0.00 0.00 0.00 43 1005.7
20260503224651 50 294 1.0 9.0 0.00 0.00 0.00 44 1005.8
20260503224518 50 44 1.0 9.0 0.00 0.00 0.00 43 1005.7
20260503224311 50 309 1.0 9.0 0.00 0.00 0.00 44 1005.8
20260503224233 50 282 1.0 9.0 0.00 0.00 0.00 43 1005.7
20260503224224 50 267 1.0 9.0 0.00 0.00 0.00 44 1005.7
20260503224004 50 274 1.0 5.0 0.00 0.00 0.00 44 1005.7
20260503223938 50 291 2.0 9.0 0.00 0.00 0.00 43 1005.6
20260503223928 50 274 2.0 9.0 0.00 0.00 0.00 44 1005.7
20260503223918 50 271 2.0 9.0 0.00 0.00 0.00 44 1005.7
20260503223704 50 307 2.0 9.0 0.00 0.00 0.00 43 1005.6
20260503223602 50 299 2.0 9.0 0.00 0.00 0.00 43 1005.7
20260503223459 50 229 2.0 9.0 0.00 0.00 0.00 43 1005.7
20260503223413 50 281 2.0 9.0 0.00 0.00 0.00 44 1005.8
20260503223355 50 281 2.0 9.0 0.00 0.00 0.00 44 1005.8
20260503223255 50 293 2.0 9.0 0.00 0.00 0.00 44 1005.7
20260503223157 50 316 2.0 9.0 0.00 0.00 0.00 44 1005.7
20260503223057 50 359 2.0 9.0 0.00 0.00 0.00 44 1005.7
20260503222954 50 222 2.0 9.0 0.00 0.00 0.00 43 1005.7
20260503222915 50 276 2.0 6.0 0.00 0.00 0.00 43 1005.6
20260503222847 50 273 2.0 6.0 0.00 0.00 0.00 43 1005.6
20260503222747 50 319 2.0 6.0 0.00 0.00 0.00 43 1005.7
20260503222647 50 255 1.0 6.0 0.00 0.00 0.00 43 1005.6
20260503222549 50 291 1.0 6.0 0.00 0.00 0.00 43 1005.6
20260503222511 50 36 2.0 14.0 0.00 0.00 0.00 43 1005.6
20260503222502 50 96 2.0 7.0 0.00 0.00 0.00 43 1005.7
20260503222448 50 276 2.0 7.0 0.00 0.00 0.00 43 1005.6
20260503222440 50 339 2.0 7.0 0.00 0.00 0.00 43 1005.6
20260503222202 50 58 2.0 14.0 0.00 0.00 0.00 43 1005.5
20260503222020 50 278 2.0 14.0 0.00 0.00 0.00 43 1005.5
20260503222007 50 50 2.0 14.0 0.00 0.00 0.00 42 1005.5
20260503221956 50 84 2.0 14.0 0.00 0.00 0.00 43 1005.5
20260503221744 50 47 3.0 14.0 0.00 0.00 0.00 43 1005.5
20260503221710 50 304 3.0 14.0 0.00 0.00 0.00 43 1005.5
20260503221658 50 53 3.0 14.0 0.00 0.00 0.00 42 1005.5
20260503221441 50 23 3.0 14.0 0.00 0.00 0.00 42 1005.4
20260503221415 50 325 3.0 14.0 0.00 0.00 0.00 42 1005.4
20260503221341 50 280 3.0 14.0 0.00 0.00 0.00 42 1005.4
20260503221309 51 330 3.0 10.0 0.00 0.00 0.00 42 1005.4
20260503221257 50 44 3.0 10.0 0.00 0.00 0.00 42 1005.4
20260503221041 51 51 3.0 10.0 0.00 0.00 0.00 41 1005.4
20260503220942 51 60 3.0 10.0 0.00 0.00 0.00 42 1005.5
20260503220915 51 53 3.0 10.0 0.00 0.00 0.00 42 1005.5
20260503220838 51 291 3.0 10.0 0.00 0.00 0.00 43 1005.5
20260503220739 51 297 3.0 9.0 0.00 0.00 0.00 43 1005.5
20260503220636 51 305 3.0 9.0 0.00 0.00 0.00 42 1005.5
20260503220602 51 231 3.0 11.0 0.00 0.00 0.00 42 1005.4
20260503220553 51 298 3.0 9.0 0.00 0.00 0.00 41 1005.4
20260503220413 51 271 3.0 11.0 0.00 0.00 0.00 43 1005.3
20260503220336 51 349 3.0 11.0 0.00 0.00 0.00 43 1005.3
20260503220234 51 297 3.0 11.0 0.00 0.00 0.00 41 1005.3
20260503220134 51 38 3.0 11.0 0.00 0.00 0.00 42 1005.3
20260503220033 51 305 3.0 11.0 0.00 0.00 0.00 42 1005.3
20260503215934 51 312 2.0 11.0 0.00 0.00 0.00 42 1005.4
20260503215916 51 300 2.0 11.0 0.00 0.00 0.00 42 1005.4
20260503215832 51 33 2.0 11.0 0.00 0.00 0.00 41 1005.4
20260503215732 51 297 2.0 11.0 0.00 0.00 0.00 41 1005.4
20260503215708 51 297 1.0 7.0 0.00 0.00 0.00 41 1005.3
20260503215701 51 294 1.0 6.0 0.00 0.00 0.00 42 1005.3
20260503215650 51 308 2.0 11.0 0.00 0.00 0.00 41 1005.3
20260503215635 51 280 2.0 11.0 0.00 0.00 0.00 41 1005.4
20260503215328 51 58 1.0 6.0 0.00 0.00 0.00 42 1005.3
20260503215226 51 81 1.0 6.0 0.00 0.00 0.00 42 1005.3
20260503215128 51 270 1.0 6.0 0.00 0.00 0.00 42 1005.3
20260503215026 51 288 2.0 6.0 0.00 0.00 0.00 42 1005.2
20260503214926 51 210 2.0 6.0 0.00 0.00 0.00 43 1005.3
20260503214901 51 211 2.0 6.0 0.00 0.00 0.00 43 1005.3
20260503214849 51 327 2.0 12.0 0.00 0.00 0.00 43 1005.2
20260503214839 51 299 2.0 12.0 0.00 0.00 0.00 42 1005.3
20260503214544 51 34 2.0 12.0 0.00 0.00 0.00 42 1005.2
20260503214536 51 191 2.0 12.0 0.00 0.00 0.00 42 1005.3
20260503214357 51 308 2.0 12.0 0.00 0.00 0.00 42 1005.2
20260503214318 51 82 2.0 12.0 0.00 0.00 0.00 41 1005.2
20260503214239 51 64 2.0 12.0 0.00 0.00 0.00 42 1005.2
20260503214230 51 71 2.0 12.0 0.00 0.00 0.00 42 1005.3
20260503214011 51 291 2.0 12.0 0.00 0.00 0.00 40 1005.2
20260503213911 51 278 2.0 12.0 0.00 0.00 0.00 40 1005.2
20260503213851 51 249 2.0 12.0 0.00 0.00 0.00 41 1005.2
20260503213810 51 46 2.0 8.0 0.00 0.00 0.00 41 1005.1
20260503213708 51 47 2.0 8.0 0.00 0.00 0.00 41 1005.2
20260503213606 51 297 2.0 8.0 0.00 0.00 0.00 42 1005.2
20260503213507 51 38 2.0 8.0 0.00 0.00 0.00 42 1005.2
20260503213409 51 309 2.0 7.0 0.00 0.00 0.00 41 1005.1
20260503213344 51 280 2.0 7.0 0.00 0.00 0.00 42 1005.1
20260503213304 51 294 2.0 7.0 0.00 0.00 0.00 42 1005.1
20260503213203 51 55 2.0 13.0 0.00 0.00 0.00 41 1005.1
20260503213056 51 283 2.0 13.0 0.00 0.00 0.00 41 1005.1
20260503212958 51 321 2.0 13.0 0.00 0.00 0.00 42 1005.2
20260503212858 51 273 2.0 13.0 0.00 0.00 0.00 42 1005.1
20260503212840 51 39 2.0 13.0 0.00 0.00 0.00 42 1005.1
20260503212757 51 280 2.0 13.0 0.00 0.00 0.00 44 1005.1
20260503212723 51 51 3.0 13.0 0.00 0.00 0.00 42 1005.1
20260503212715 51 302 2.0 13.0 0.00 0.00 0.00 42 1005.0
20260503212711 51 271 2.0 12.0 0.00 0.00 0.00 43 1005.0
20260503212703 51 86 2.0 13.0 0.00 0.00 0.00 42 1005.2
20260503212646 51 351 2.0 13.0 0.00 0.00 0.00 43 1005.1
20260503212631 51 64 2.0 13.0 0.00 0.00 0.00 44 1005.1
20260503212213 51 82 3.0 10.0 0.00 0.00 0.00 42 1005.0
20260503212203 51 40 3.0 8.0 0.00 0.00 0.00 42 1005.0
20260503212015 51 299 2.0 10.0 0.00 0.00 0.00 43 1005.0
20260503212005 51 349 3.0 10.0 0.00 0.00 0.00 42 1005.2
20260503211824 51 43 2.0 10.0 0.00 0.00 0.00 42 1005.1
20260503211811 51 288 2.0 10.0 0.00 0.00 0.00 43 1005.0
20260503211802 51 39 2.0 10.0 0.00 0.00 0.00 42 1005.1
20260503211605 51 32 2.0 10.0 0.00 0.00 0.00 42 1005.0
20260503211556 51 325 2.0 10.0 0.00 0.00 0.00 42 1005.0
20260503211338 51 77 2.0 10.0 0.00 0.00 0.00 42 1004.9
20260503211320 51 81 2.0 10.0 0.00 0.00 0.00 42 1004.9
20260503211239 51 294 2.0 10.0 0.00 0.00 0.00 42 1004.9
20260503211138 51 288 2.0 7.0 0.00 0.00 0.00 42 1004.9
20260503211032 51 125 2.0 7.0 0.00 0.00 0.00 42 1004.9
20260503211001 51 18 2.0 7.0 0.00 0.00 0.00 43 1004.9
20260503210952 51 297 2.0 7.0 0.00 0.00 0.00 43 1005.0
20260503210813 51 53 2.0 7.0 0.00 0.00 0.00 43 1004.8
20260503210732 51 271 2.0 7.0 0.00 0.00 0.00 42 1004.8
20260503210634 51 300 1.0 7.0 0.00 0.00 0.00 43 1004.8
20260503210605 51 44 1.0 7.0 0.00 0.00 0.00 42 1004.7
20260503210600 51 46 1.0 7.0 0.00 0.00 0.00 42 1004.7
20260503210550 51 307 1.0 7.0 0.00 0.00 0.00 43 1004.7
20260503210535 51 299 1.0 7.0 0.00 0.00 0.00 43 1004.7
20260503210226 51 88 1.0 7.0 0.00 0.00 0.00 42 1004.7
20260503210127 51 236 1.0 7.0 0.00 0.00 0.00 44 1004.7
20260503210026 51 50 1.0 7.0 0.00 0.00 0.00 44 1004.7
20260503205924 51 30 1.0 7.0 0.00 0.00 0.00 44 1004.7
20260503205827 51 37 1.0 7.0 0.00 0.00 0.00 43 1004.6
20260503205802 51 36 1.0 7.0 0.00 0.00 0.00 43 1004.6
20260503205722 51 36 1.0 7.0 0.00 0.00 0.00 43 1004.6
20260503205623 51 33 1.0 7.0 0.00 0.00 0.00 43 1004.7
20260503205515 51 281 1.0 7.0 0.00 0.00 0.00 42 1004.7
20260503205415 51 39 1.0 7.0 0.00 0.00 0.00 42 1004.6
20260503205315 51 338 2.0 8.0 0.00 0.00 0.00 42 1004.6
20260503205256 51 316 2.0 8.0 0.00 0.00 0.00 42 1004.6
20260503205216 52 291 2.0 9.0 0.00 0.00 0.00 42 1004.6
20260503205116 52 288 2.0 10.0 0.00 0.00 0.00 43 1004.6
20260503205052 51 61 2.0 10.0 0.00 0.00 0.00 43 1004.6
20260503204925 51 5 2.0 10.0 0.00 0.00 0.00 43 1004.6
20260503204752 51 242 2.0 10.0 0.00 0.00 0.00 42 1004.6
20260503204710 51 241 3.0 10.0 0.00 0.00 0.00 42 1004.6
20260503204609 51 53 3.0 10.0 0.00 0.00 0.00 42 1004.6
20260503204503 51 37 3.0 10.0 0.00 0.00 0.00 42 1004.6
20260503204403 51 280 2.0 11.0 0.00 0.00 0.00 41 1004.6
20260503204303 52 281 2.0 11.0 0.00 0.00 0.00 41 1004.7
20260503204245 52 6 2.0 11.0 0.00 0.00 0.00 41 1004.7
20260503204203 52 111 2.0 11.0 0.00 0.00 0.00 42 1004.5
20260503204102 52 278 2.0 11.0 0.00 0.00 0.00 42 1004.6
20260503204001 52 249 2.0 11.0 0.00 0.00 0.00 42 1004.5
20260503203942 52 338 2.0 11.0 0.00 0.00 0.00 43 1004.4
20260503203819 52 300 2.0 11.0 0.00 0.00 0.00 41 1004.5
20260503203810 52 318 2.0 11.0 0.00 0.00 0.00 41 1004.5
20260503203558 52 87 2.0 11.0 0.00 0.00 0.00 41 1004.5
20260503203452 52 56 2.0 11.0 0.00 0.00 0.00 40 1004.5
20260503203351 52 281 2.0 9.0 0.00 0.00 0.00 41 1004.5
20260503203325 52 280 2.0 9.0 0.00 0.00 0.00 40 1004.5
20260503203314 52 343 2.0 9.0 0.00 0.00 0.00 40 1004.5
20260503203306 52 288 2.0 9.0 0.00 0.00 0.00 40 1004.5
20260503203113 52 255 2.0 9.0 0.00 0.00 0.00 43 1004.4
20260503203103 52 271 2.0 9.0 0.00 0.00 0.00 40 1004.4
20260503202845 52 53 1.0 9.0 0.00 0.00 0.00 43 1004.5
20260503202745 52 273 2.0 9.0 0.00 0.00 0.00 43 1004.4
20260503202725 52 69 2.0 9.0 0.00 0.00 0.00 43 1004.5
20260503202645 52 25 2.0 9.0 0.00 0.00 0.00 43 1004.5
20260503202545 52 264 2.0 9.0 0.00 0.00 0.00 43 1004.4
20260503202452 51 142 2.0 10.0 0.00 0.00 0.00 44 1004.4
20260503202444 52 264 2.0 10.0 0.00 0.00 0.00 42 1004.4
20260503202349 52 275 2.0 10.0 0.00 0.00 0.00 42 1004.5
20260503202333 51 39 2.0 10.0 0.00 0.00 0.00 44 1004.4
20260503202142 51 11 2.0 10.0 0.00 0.00 0.00 43 1004.4
20260503202038 51 262 2.0 10.0 0.00 0.00 0.00 42 1004.5
20260503201933 51 25 2.0 10.0 0.00 0.00 0.00 43 1004.5
20260503201833 51 33 2.0 10.0 0.00 0.00 0.00 42 1004.4
20260503201809 51 280 2.0 12.0 0.00 0.00 0.00 42 1004.4
20260503201756 51 215 2.0 10.0 0.00 0.00 0.00 42 1004.4
20260503201748 51 252 2.0 10.0 0.00 0.00 0.00 42 1004.4
20260503201534 51 309 2.0 12.0 0.00 0.00 0.00 43 1004.4
20260503201434 52 128 1.0 12.0 0.00 0.00 0.00 42 1004.4
20260503201427 51 276 2.0 12.0 0.00 0.00 0.00 42 1004.4
20260503201336 51 32 2.0 12.0 0.00 0.00 0.00 42 1004.4
20260503201318 52 48 1.0 12.0 0.00 0.00 0.00 42 1004.4
20260503201153 52 288 2.0 12.0 0.00 0.00 0.00 41 1004.3
20260503201145 52 57 1.0 12.0 0.00 0.00 0.00 42 1004.3
20260503200931 52 285 2.0 10.0 0.00 0.00 0.00 44 1004.3
20260503200922 52 14 2.0 12.0 0.00 0.00 0.00 42 1004.3
20260503200829 52 355 2.0 12.0 0.00 0.00 0.00 42 1004.3
20260503200812 52 322 2.0 12.0 0.00 0.00 0.00 44 1004.3
20260503200649 52 291 2.0 10.0 0.00 0.00 0.00 46 1004.3
20260503200637 52 345 2.0 10.0 0.00 0.00 0.00 45 1004.4
20260503200424 52 291 2.0 10.0 0.00 0.00 0.00 42 1004.3
20260503200416 52 288 2.0 10.0 0.00 0.00 0.00 44 1004.3
20260503200323 52 77 2.0 10.0 0.00 0.00 0.00 42 1004.3
20260503200306 52 276 2.0 10.0 0.00 0.00 0.00 42 1004.3
20260503200115 52 291 2.0 10.0 0.00 0.00 0.00 41 1004.3
20260503200039 52 27 2.0 10.0 0.00 0.00 0.00 41 1004.2
20260503200028 52 274 2.0 10.0 0.00 0.00 0.00 42 1004.3
20260503195808 52 276 2.0 10.0 0.00 0.00 0.00 43 1004.3
20260503195710 52 302 2.0 10.0 0.00 0.00 0.00 42 1004.2
20260503195650 52 283 2.0 10.0 0.00 0.00 0.00 42 1004.2
20260503195639 52 239 2.0 10.0 0.00 0.00 0.00 43 1004.3
20260503195627 52 291 2.0 10.0 0.00 0.00 0.00 42 1004.3
20260503195431 52 99 2.0 10.0 0.00 0.00 0.00 42 1004.3
20260503195422 52 309 2.0 10.0 0.00 0.00 0.00 41 1004.4
20260503195204 52 314 2.0 10.0 0.00 0.00 0.00 44 1004.3
20260503195143 52 284 2.0 10.0 0.00 0.00 0.00 44 1004.3
20260503195105 52 299 2.0 10.0 0.00 0.00 0.00 42 1004.3
20260503195003 52 300 3.0 10.0 0.00 0.00 0.00 41 1004.3